QTR1154 OTHH-OEDF

Flight info

Callsign QTR1154
Flight time N/A
Altitude 16000
Route TULUB B457 NARMI
Aircraft A359/H-SDE2E3GHIJ3J4J5LM1ORWXY/LB1D1

Departure

Time 2026-05-07 12:12
Airport Hamad International Airport (OTHH)

Arrival

Time N/A
Airport King Fahd International Airport (OEDF)
Time Latitude Longitude Altitude Speed Heading
2026-05-07 11:52 25.26811 51.61255 26 ft 0 kts 292°
2026-05-07 11:59 25.26806 51.61266 26 ft 2 kts 292°
2026-05-07 11:59 25.26800 51.61283 26 ft 2 kts 292°
2026-05-07 12:00 25.26794 51.61300 26 ft 2 kts 292°
2026-05-07 12:00 25.26788 51.61317 25 ft 2 kts 287°
2026-05-07 12:00 25.26782 51.61334 25 ft 2 kts 320°
2026-05-07 12:00 25.26767 51.61340 24 ft 2 kts
2026-05-07 12:01 25.26751 51.61337 23 ft 2 kts 21°
2026-05-07 12:01 25.26737 51.61330 25 ft 1 kts 24°
2026-05-07 12:01 25.26733 51.61328 24 ft 0 kts 22°
2026-05-07 12:05 25.26734 51.61329 24 ft 0 kts 22°
2026-05-07 12:08 25.26735 51.61329 26 ft 1 kts 22°
2026-05-07 12:09 25.26804 51.61361 26 ft 19 kts 23°
2026-05-07 12:09 25.26971 51.61441 26 ft 29 kts 28°
2026-05-07 12:09 25.27046 51.61595 26 ft 23 kts 70°
2026-05-07 12:09 25.27114 51.61759 31 ft 18 kts 42°
2026-05-07 12:10 25.27168 51.61763 31 ft 7 kts 337°
2026-05-07 12:10 25.27223 51.61738 29 ft 10 kts 337°
2026-05-07 12:10 25.27299 51.61702 31 ft 13 kts 337°
2026-05-07 12:10 25.27394 51.61658 27 ft 16 kts 337°
2026-05-07 12:11 25.27511 51.61612 26 ft 19 kts 341°
2026-05-07 12:11 25.27579 51.61634 32 ft 9 kts 53°
2026-05-07 12:11 25.27597 51.61745 27 ft 18 kts 105°
2026-05-07 12:11 25.27487 51.61823 28 ft 39 kts 159°
2026-05-07 12:12 25.26964 51.62051 28 ft 120 kts 158°
2026-05-07 12:12 25.25995 51.62486 211 ft 171 kts 157°
2026-05-07 12:12 25.24879 51.62980 807 ft 178 kts 158°
2026-05-07 12:12 25.23641 51.63520 1108 ft 208 kts 159°
2026-05-07 12:13 25.22196 51.64163 1351 ft 240 kts 157°
2026-05-07 12:13 25.20919 51.65458 1730 ft 263 kts 118°
2026-05-07 12:13 25.20567 51.67429 2495 ft 267 kts 83°
2026-05-07 12:13 25.21193 51.69358 3370 ft 269 kts 63°